Regional Weather Roundup
Issued by NWS

Home | Current Version | Previous Version | Graphics & Text | Print | Product List | Glossary On
Versions: 1 2 3 4 5 6 7 8 9 10 11 12 13 14 15 16 17 18 19 20 21 22 23 24 25 26 27 28 29 30 31 32 33 34 35 36 37 38 39 40 41 42 43 44 45 46 47 48 49 50
956
ASUS43 KTOP 041508
RWRKS

WEATHER ROUNDUP FOR KANSAS
NATIONAL WEATHER SERVICE GOODLAND KS
1000 AM CDT WED MAY 04 2016

NOTE:  "FAIR" INDICATES FEW OR NO CLOUDS BELOW 12,000 FEET WITH NO
SIGNIFICANT WEATHER AND/OR OBSTRUCTIONS TO VISIBILITY.

KSZ001>006-013>018-027>032-041>047-041600-
NORTHWEST KANSAS

CITY           SKY/WX    TMP DP  RH WIND       PRES   REMARKS
GOODLAND       SUNNY     64  41  42 NW10      30.19S
HAYS           SUNNY     63  41  45 N10       30.13R
HILL CITY      SUNNY     63  42  46 N9        30.15R
RUSSELL        SUNNY     61  44  53 N9        30.10R
$$

KSZ061>065-074>080-084>089-041600-
SOUTHWEST KANSAS

CITY           SKY/WX    TMP DP  RH WIND       PRES   REMARKS
DODGE CITY     SUNNY     64  43  46 NW12      30.14R
ELKHART          N/A     61  44  53 W7          N/A
GARDEN CITY    SUNNY     62  41  46 NW13      30.15S
GREAT BEND     SUNNY     59  45  58 N13       30.11S
LIBERAL        SUNNY     61  45  55 NW12      30.18S
PRATT          SUNNY     60  43  54 N15       30.10S
$$

KSZ066>073-081>083-090>101-041600-
SOUTHEAST KANSAS

CITY           SKY/WX    TMP DP  RH WIND       PRES   REMARKS
CHANUTE        SUNNY     65  43  44 NW18      29.98R
COFFEYVILLE    SUNNY     67  45  45 N14       29.98R
HUTCHINSON     SUNNY     65  43  44 N9        30.07R
MEDICINE LODGE   N/A     67  46  47 N13       30.07R
NEWTON         SUNNY     63  43  48 N14       30.07R
PARSONS        SUNNY     66  47  50 N16G23    29.99R
WICHITA INTL   SUNNY     65  44  46 N13       30.05R
WICHITA JABRA  SUNNY     64  45  49 N10       30.04R
WICHITA MCCONL SUNNY     64  45  51 N13       30.05R
WINFIELD       SUNNY     66  50  56 N13       30.29S
$$

KSZ007>012-019>026-033>040-048>060-102>105-041600-
NORTHEAST KANSAS

CITY           SKY/WX    TMP DP  RH WIND       PRES   REMARKS
CONCORDIA      SUNNY     61  37  41 N15       30.08R
EMPORIA        SUNNY     64  40  41 N14G21    30.01R
LAWRENCE       SUNNY     63  41  44 NW17      29.98R
MANHATTAN      SUNNY     64  39  39 N8        30.04R
MARYSVILLE     SUNNY     59  43  55 N12       30.05R
OLATHE IND     SUNNY     62  40  44 NW16      29.97R
OLATHE EXE     SUNNY     61  38  42 N15       29.96R
SALINA         SUNNY     65  43  44 N15       30.08R
TOPEKA BILLARD SUNNY     62  39  42 N15G22    30.00R
TOPEKA FORBES  SUNNY     64  40  41 N15       30.00R
$$




USA.gov is the U.S. government's official web portal to all federal, state and local government web resources and services.